N9DMT-13 Weather Reports


time (UTC)temp
C
wind
direction
speed
KPH
gust
KPH
rain 1hr
cm
rain 24hr
cm
rain mn
cm
humidity
%
barometer
mb
20260506104540 -1 5 0.0 0.0 0.00 0.00 0.00 93 981.2
20260506104039 -1 8 0.0 0.0 0.00 0.00 0.00 93 981.2
20260506103538 -1 12 0.0 0.0 0.00 0.00 0.00 93 981.2
20260506103038 -1 350 0.0 0.0 0.00 0.00 0.00 93 981.3
20260506102537 -1 350 0.0 0.0 0.00 0.00 0.00 93 981.2
20260506102036 -1 350 0.0 0.0 0.00 0.00 0.00 93 981.2
20260506101536 -1 351 0.0 0.0 0.00 0.00 0.00 93 981.0
20260506101035 -1 352 0.0 0.0 0.00 0.00 0.00 93 981.0
20260506100534 -1 352 0.0 0.0 0.00 0.00 0.00 93 981.0
20260506100033 -1 352 0.0 0.0 0.00 0.00 0.00 93 980.9
20260506095532 -1 352 0.0 0.0 0.00 0.00 0.00 93 980.9
20260506095031 -1 352 0.0 0.0 0.00 0.00 0.00 93 980.7
20260506094531 -1 352 0.0 0.0 0.00 0.00 0.00 93 980.8
20260506094030 -1 352 0.0 0.0 0.00 0.00 0.00 93 980.8
20260506093529 -1 353 0.0 0.0 0.00 0.00 0.00 93 980.8
20260506093028 -1 354 0.0 0.0 0.00 0.00 0.00 93 980.8
20260506092527 -1 354 0.0 0.0 0.00 0.00 0.00 93 980.8
20260506092026 -1 354 0.0 0.0 0.00 0.00 0.00 93 980.7
20260506091525 -1 354 0.0 0.0 0.00 0.00 0.00 93 981.0
20260506091024 -1 354 0.0 0.0 0.00 0.00 0.00 92 980.7
20260506090523 -1 354 0.0 0.0 0.00 0.00 0.00 92 980.7
20260506090022 -1 354 0.0 0.0 0.00 0.00 0.00 92 980.9
20260506085521 -1 354 0.0 0.0 0.00 0.00 0.00 92 980.8
20260506085021 -1 354 0.0 0.0 0.00 0.00 0.00 92 980.9
20260506084520 -1 354 0.0 0.0 0.00 0.00 0.00 92 980.7
20260506084019 -1 354 0.0 0.0 0.00 0.00 0.00 92 980.7
20260506083518 -1 354 0.0 0.0 0.00 0.00 0.00 92 980.7
20260506083017 -1 354 0.0 0.0 0.00 0.00 0.00 92 980.7
20260506082517 -1 354 0.0 0.0 0.00 0.00 0.00 92 980.6
20260506082016 -1 354 0.0 0.0 0.00 0.00 0.00 92 980.9
20260506081515 -1 354 0.0 0.0 0.00 0.00 0.00 92 980.5
20260506081014 -1 354 0.0 0.0 0.00 0.00 0.00 91 980.5
20260506080513 -1 354 0.0 0.0 0.00 0.00 0.00 91 980.6
20260506073509 -1 354 0.0 0.0 0.00 0.00 0.00 91 980.2
20260506073008 -1 354 0.0 0.0 0.00 0.00 0.00 91 980.2
20260506072507 -1 354 0.0 0.0 0.00 0.00 0.00 91 980.0
20260506072007 -1 354 0.0 0.0 0.00 0.00 0.00 90 980.0
20260506071506 -1 354 0.0 0.0 0.00 0.00 0.00 90 980.1
20260506071005 0 354 0.0 0.0 0.00 0.00 0.00 90 979.9
20260506070504 0 354 0.0 0.0 0.00 0.00 0.00 89 980.1
20260506062457 0 354 0.0 0.0 0.00 0.00 0.00 88 980.1
20260506061957 0 354 0.0 0.0 0.00 0.00 0.00 88 980.2
20260506061456 0 354 0.0 0.0 0.00 0.00 0.00 88 980.1
20260506060955 0 354 0.0 0.0 0.00 0.00 0.00 88 980.4
20260506060454 0 354 0.0 0.0 0.00 0.00 0.00 88 980.3
20260506050945 1 354 0.0 0.0 0.00 0.00 0.00 84 980.1
20260506050444 1 354 0.0 0.0 0.00 0.00 0.00 84 979.8
20260506044941 1 354 0.0 0.0 0.00 0.00 0.00 83 980.0
20260506044441 1 354 0.0 0.0 0.00 0.00 0.00 82 979.9
20260506043940 1 354 0.0 0.0 0.00 0.00 0.00 82 979.9
20260506043439 1 354 0.0 0.0 0.00 0.00 0.00 81 979.8
20260506042938 1 354 0.0 0.0 0.00 0.00 0.00 80 979.8
20260506042437 1 354 0.0 0.0 0.00 0.00 0.00 79 980.0
20260506041937 1 354 0.0 0.0 0.00 0.00 0.00 79 979.8
20260506041436 1 354 0.0 0.0 0.00 0.00 0.00 79 979.9
20260506040936 2 354 0.0 0.0 0.00 0.00 0.00 79 979.8
20260506040435 2 354 0.0 0.0 0.00 0.00 0.00 79 979.9
20260506035934 2 354 0.0 0.0 0.00 0.00 0.00 78 979.8
20260506034932 2 354 0.0 0.0 0.00 0.00 0.00 77 979.5
20260506034432 2 354 0.0 0.0 0.00 0.00 0.00 76 979.5
20260506033931 2 354 0.0 0.0 0.00 0.00 0.00 75 979.7
20260506033430 3 354 0.0 0.0 0.00 0.00 0.00 76 979.7
20260506032928 3 354 0.0 0.0 0.00 0.00 0.00 74 979.7
20260506032427 3 354 0.0 0.0 0.00 0.00 0.00 75 979.6
20260506031927 3 354 0.0 0.0 0.00 0.00 0.00 74 979.6
20260506031426 3 354 0.0 0.0 0.00 0.00 0.00 73 979.6
20260506030925 3 354 0.0 0.0 0.00 0.00 0.00 72 979.6
20260506030424 3 354 0.0 0.0 0.00 0.00 0.00 71 979.7
20260506025923 4 354 0.0 0.0 0.00 0.00 0.00 71 979.8
20260506025422 4 354 0.0 0.0 0.00 0.00 0.00 70 979.5
20260506024921 4 354 0.0 0.0 0.00 0.00 0.00 67 979.5
20260506024420 5 354 0.0 0.0 0.00 0.00 0.00 69 979.5
20260506023920 5 354 0.0 0.0 0.00 0.00 0.00 68 979.5
20260506023419 5 354 0.0 0.0 0.00 0.00 0.00 67 979.4
20260506022918 5 354 0.0 0.0 0.00 0.00 0.00 64 979.3
20260506022417 5 354 0.0 0.0 0.00 0.00 0.00 67 979.3
20260506021917 5 354 0.0 0.0 0.00 0.00 0.00 65 979.2
20260506021416 6 354 0.0 0.0 0.00 0.00 0.00 63 979.1
20260506020915 6 354 0.0 0.0 0.00 0.00 0.00 62 979.0
20260506020414 6 353 0.0 0.0 0.00 0.00 0.00 57 978.8
20260506015914 6 356 0.0 1.6 0.00 0.00 0.00 54 978.7
20260506015413 7 358 0.0 0.0 0.00 0.00 0.00 53 978.8
20260506014912 7 0 0.0 0.0 0.00 0.00 0.00 50 978.7
20260506014410 7 352 0.0 0.0 0.00 0.00 0.00 49 978.5
20260506013909 7 1 0.0 0.0 0.00 0.00 0.00 49 978.4
20260506013407 7 357 0.0 0.0 0.00 0.00 0.00 48 978.5
20260506012907 8 353 0.0 0.0 0.00 0.00 0.00 46 978.4
20260506012406 8 344 0.0 0.0 0.00 0.00 0.00 46 978.3
20260506011905 8 48 0.0 0.0 0.00 0.00 0.00 46 978.3
20260506011404 8 9 0.0 0.0 0.00 0.00 0.00 44 978.3
20260506010903 8 349 0.0 0.0 0.00 0.00 0.00 45 978.1
20260506010402 8 3 0.0 0.0 0.00 0.00 0.00 46 978.2
20260506005901 8 6 0.0 0.0 0.00 0.00 0.00 43 978.0
20260506005401 9 3 0.0 0.0 0.00 0.00 0.00 44 977.9
20260506004900 9 4 0.0 0.0 0.00 0.00 0.00 44 978.0
20260506004359 9 269 0.0 0.0 0.00 0.00 0.00 43 978.1
20260506003858 10 41 0.0 0.0 0.00 0.00 0.00 41 977.9
20260506003357 10 20 0.0 0.0 0.00 0.00 0.00 40 977.9
20260506002856 10 74 0.0 0.0 0.00 0.00 0.00 43 977.8
20260506002356 10 271 0.0 0.0 0.00 0.00 0.00 41 977.8
20260506001855 10 349 0.0 0.0 0.00 0.00 0.00 40 977.9
20260506001354 10 5 0.0 1.6 0.00 0.00 0.00 41 978.0
20260506000853 10 3 0.0 0.0 0.00 0.00 0.00 42 978.1
20260506000354 10 334 0.0 0.0 0.00 0.00 0.00 41 977.9
20260505235851 10 335 0.0 0.0 0.00 0.00 0.00 41 978.0
20260505235351 10 225 0.0 1.6 0.00 0.00 0.00 41 977.8
20260505234849 10 303 0.0 0.0 0.00 0.00 0.00 40 977.9
20260505234349 10 240 1.6 1.6 0.00 0.00 0.00 39 977.9
20260505233848 10 1 0.0 0.0 0.00 0.00 0.00 37 977.6
20260505233347 11 302 1.6 3.2 0.00 0.00 0.00 37 977.8
20260505232846 11 67 1.6 3.2 0.00 0.00 0.00 37 977.8
20260505232345 11 128 1.6 3.2 0.00 0.00 0.00 37 977.8
20260505231845 11 261 1.6 1.6 0.00 0.00 0.00 38 977.9
20260505231344 11 2 3.2 4.8 0.00 0.00 0.00 37 977.9
20260505230843 11 349 0.0 0.0 0.00 0.00 0.00 39 977.8
20260505230342 11 11 1.6 3.2 0.00 0.00 0.00 36 977.9
20260505225841 11 351 0.0 1.6 0.00 0.00 0.00 37 978.2
20260505225341 11 3 0.0 0.0 0.00 0.00 0.00 38 978.0
20260505224840 11 357 0.0 0.0 0.00 0.00 0.00 38 978.1
20260505224339 11 318 0.0 0.0 0.00 0.00 0.00 38 978.0
20260505223838 11 270 0.0 1.6 0.00 0.00 0.00 37 977.9
20260505223338 12 275 3.2 4.8 0.00 0.00 0.00 35 978.0
20260505222837 12 282 3.2 4.8 0.00 0.00 0.00 35 977.7
20260505222336 12 295 0.0 0.0 0.00 0.00 0.00 35 977.8
20260505221835 11 358 0.0 0.0 0.00 0.00 0.00 37 977.7
20260505221335 11 282 0.0 1.6 0.00 0.00 0.00 36 977.7
20260505220834 11 272 0.0 0.0 0.00 0.00 0.00 35 977.6
20260505220333 11 287 0.0 0.0 0.00 0.00 0.00 36 977.7
20260505215832 12 352 0.0 1.6 0.00 0.00 0.00 35 977.8
20260505215332 12 217 0.0 0.0 0.00 0.00 0.00 37 977.7
20260505214831 11 290 1.6 4.8 0.00 0.00 0.00 35 977.7
20260505214330 11 17 0.0 0.0 0.00 0.00 0.00 38 977.8
20260505213829 12 312 0.0 0.0 0.00 0.00 0.00 39 977.7
20260505213328 12 9 0.0 0.0 0.00 0.00 0.00 37 977.8
20260505212827 11 20 0.0 0.0 0.00 0.00 0.00 37 977.8
20260505212326 12 274 4.8 9.7 0.00 0.00 0.00 37 977.7
20260505211826 12 231 1.6 3.2 0.00 0.00 0.00 36 977.7
20260505211325 13 266 0.0 1.6 0.00 0.00 0.00 36 977.9
20260505210824 12 287 4.8 4.8 0.00 0.00 0.00 35 977.8
20260505210323 12 227 4.8 9.7 0.00 0.00 0.00 35 977.8
20260505205823 12 356 0.0 0.0 0.00 0.00 0.00 40 977.9
20260505205322 12 346 8.0 9.7 0.00 0.00 0.00 35 977.9
20260505204821 12 302 1.6 1.6 0.00 0.00 0.00 37 978.1
20260505204320 13 327 8.0 11.3 0.00 0.00 0.00 36 978.2
20260505203819 13 17 0.0 0.0 0.00 0.00 0.00 33 978.1
20260505203318 13 275 1.6 3.2 0.00 0.00 0.00 34 978.2
20260505202818 12 334 3.2 3.2 0.00 0.00 0.00 34 978.3
20260505202317 13 9 0.0 0.0 0.00 0.00 0.00 35 978.1
20260505201816 13 248 0.0 1.6 0.00 0.00 0.00 35 978.1
20260505201315 13 270 1.6 3.2 0.00 0.00 0.00 34 978.1
20260505200815 13 310 0.0 1.6 0.00 0.00 0.00 36 978.2
20260505200314 12 236 4.8 6.4 0.00 0.00 0.00 37 978.2
20260505195813 12 334 14.5 24.1 0.00 0.00 0.00 35 978.1
20260505195312 12 275 1.6 3.2 0.00 0.00 0.00 35 978.1
20260505194812 12 18 6.4 9.7 0.00 0.00 0.00 40 978.3
20260505194304 12 355 0.0 0.0 0.00 0.00 0.00 36 978.3
20260505193803 13 251 3.2 4.8 0.00 0.00 0.00 34 978.1
20260505193302 12 252 3.2 4.8 0.00 0.00 0.00 36 978.1
20260505192801 12 225 3.2 4.8 0.00 0.00 0.00 34 978.2
20260505192301 13 287 1.6 3.2 0.00 0.00 0.00 36 978.3
20260505191800 13 246 3.2 4.8 0.00 0.00 0.00 34 977.9
20260505191259 13 210 0.0 0.0 0.00 0.00 0.00 35 978.2
20260505190758 13 252 6.4 11.3 0.00 0.00 0.00 35 978.2
20260505190257 13 5 1.6 3.2 0.00 0.00 0.00 33 978.3
20260505185757 13 291 0.0 1.6 0.00 0.00 0.00 33 978.2
20260505185256 13 220 0.0 1.6 0.00 0.00 0.00 34 978.3
20260505184755 13 237 1.6 3.2 0.00 0.00 0.00 32 978.1
20260505184254 13 257 4.8 4.8 0.00 0.00 0.00 35 978.1
20260505183753 13 319 1.6 3.2 0.00 0.00 0.00 34 978.2
20260505183252 13 308 1.6 1.6 0.00 0.00 0.00 35 978.1
20260505182751 12 15 0.0 0.0 0.00 0.00 0.00 33 977.9
20260505182251 12 349 1.6 3.2 0.00 0.00 0.00 35 977.9
20260505181750 12 321 1.6 3.2 0.00 0.00 0.00 36 978.1
20260505181249 13 286 4.8 4.8 0.00 0.00 0.00 33 978.1
20260505180748 12 231 3.2 4.8 0.00 0.00 0.00 34 978.1
20260505180247 12 303 3.2 4.8 0.00 0.00 0.00 36 978.2
20260505175747 12 248 6.4 6.4 0.00 0.00 0.00 35 978.1
20260505175246 12 248 6.4 9.7 0.00 0.00 0.00 32 978.1
20260505174745 12 228 3.2 4.8 0.00 0.00 0.00 34 978.1
20260505174244 12 34 4.8 6.4 0.00 0.00 0.00 34 977.9
20260505173743 12 298 0.0 1.6 0.00 0.00 0.00 35 978.1
20260505173243 13 289 9.7 14.5 0.00 0.00 0.00 37 978.2
20260505172742 12 257 0.0 1.6 0.00 0.00 0.00 36 977.9
20260505172241 12 350 3.2 6.4 0.00 0.00 0.00 33 978.0
20260505171740 12 249 1.6 6.4 0.00 0.00 0.00 33 978.1
20260505171239 12 229 3.2 4.8 0.00 0.00 0.00 36 978.1
20260505170738 12 1 9.7 14.5 0.00 0.00 0.00 33 978.0
20260505170238 13 285 0.0 3.2 0.00 0.00 0.00 33 978.2
20260505165737 12 324 0.0 0.0 0.00 0.00 0.00 36 978.1
20260505165236 12 272 4.8 4.8 0.00 0.00 0.00 36 978.0
20260505164735 12 285 3.2 6.4 0.00 0.00 0.00 35 977.9
20260505164234 12 340 3.2 4.8 0.00 0.00 0.00 38 978.2
20260505163733 12 288 1.6 3.2 0.00 0.00 0.00 33 978.1
20260505163233 11 0 0.0 0.0 0.00 0.00 0.00 36 977.9
20260505162731 12 28 9.7 14.5 0.00 0.00 0.00 33 978.1
20260505162230 12 34 0.0 0.0 0.00 0.00 0.00 34 978.1
20260505161729 11 285 3.2 4.8 0.00 0.00 0.00 39 978.1
20260505161228 11 15 3.2 12.9 0.00 0.00 0.00 33 978.1
20260505160728 11 13 8.0 9.7 0.00 0.00 0.00 33 978.0
20260505160227 11 334 16.1 20.9 0.00 0.00 0.00 34 977.8
20260505153222 11 263 4.8 6.4 0.00 0.00 0.00 35 977.9
20260505152722 11 271 0.0 0.0 0.00 0.00 0.00 36 977.6
20260505152221 11 349 0.0 0.0 0.00 0.00 0.00 36 977.8
20260505151720 11 329 9.7 12.9 0.00 0.00 0.00 36 977.7
20260505151219 11 258 0.0 0.0 0.00 0.00 0.00 37 977.7
20260505150719 11 176 3.2 4.8 0.00 0.00 0.00 37 977.7
20260505150218 12 216 1.6 3.2 0.00 0.00 0.00 36 977.7
20260505140209 10 3 0.0 0.0 0.00 0.00 0.00 42 977.7
20260505130201 8 282 0.0 1.6 0.00 0.00 0.00 52 977.8
20260505124658 7 323 0.0 0.0 0.00 0.00 0.00 53 977.6
20260505124158 7 10 0.0 0.0 0.00 0.00 0.00 54 977.7
20260505123657 7 261 0.0 0.0 0.00 0.00 0.00 58 977.5
20260505123157 7 301 0.0 0.0 0.00 0.00 0.00 57 977.3
20260505122656 6 1 0.0 0.0 0.00 0.00 0.00 59 977.6
20260505122155 5 37 0.0 0.0 0.00 0.00 0.00 72 977.3
20260505121654 5 53 0.0 0.0 0.00 0.00 0.00 73 977.3
20260505121153 5 14 0.0 0.0 0.00 0.00 0.00 74 977.3
20260505120652 4 32 0.0 0.0 0.00 0.00 0.00 75 977.1
20260505120151 3 22 0.0 0.0 0.00 0.00 0.00 77 977.2
20260505115651 2 0 0.0 0.0 0.00 0.00 0.00 82 977.0
20260505115150 1 0 0.0 0.0 0.00 0.00 0.00 84 977.0
20260505114650 1 359 0.0 0.0 0.00 0.00 0.00 85 976.6
20260505114149 1 359 0.0 0.0 0.00 0.00 0.00 85 976.3
20260505113648 1 359 0.0 0.0 0.00 0.00 0.00 85 976.2
20260505113147 1 359 0.0 0.0 0.00 0.00 0.00 84 976.1
20260505112647 1 359 0.0 0.0 0.00 0.00 0.00 84 975.9
20260505112146 1 352 0.0 0.0 0.00 0.00 0.00 83 976.0
20260505111645 1 358 0.0 0.0 0.00 0.00 0.00 84 975.6
20260505111145 1 354 0.0 0.0 0.00 0.00 0.00 84 975.5
20260505110644 1 358 0.0 0.0 0.00 0.00 0.00 83 975.6
20260505110143 1 359 0.0 0.0 0.00 0.00 0.00 83 975.6